CW0572 Weather Reports


Display with metric or nautical units.
time (UTC)temp
F
wind
direction
speed
MPH
gust
MPH
rain 1hr
in
rain 24hr
in
rain mn
in
humidity
%
barometer
mb
20180819133508 85 139 0.0 6.0 0.00 0.00 0.00 81 1018.4
20180819133008 84 253 0.0 6.0 0.00 0.00 0.00 82 1018.3
20180819132508 83 259 0.0 6.0 0.00 0.00 0.00 83 1018.3
20180819132008 83 260 0.0 6.0 0.00 0.00 0.00 83 1018.3
20180819131508 83 264 0.0 6.0 0.00 0.00 0.00 83 1018.3
20180819131008 84 256 0.0 6.0 0.00 0.00 0.00 83 1018.3
20180819130508 84 141 0.0 2.0 0.00 0.00 0.00 84 1018.3
20180819130008 83 141 0.0 2.0 0.00 0.00 0.00 85 1018.3
20180819125508 83 138 0.0 2.0 0.00 0.00 0.00 85 1018.3
20180819125008 82 138 0.0 2.0 0.00 0.00 0.00 87 1018.2
20180819124508 82 138 0.0 2.0 0.00 0.00 0.00 87 1018.1
20180819124008 82 137 0.0 4.0 0.00 0.00 0.00 88 1018.0
20180819123508 81 136 0.0 4.0 0.00 0.00 0.00 89 1018.0
20180819123008 81 145 2.0 4.0 0.00 0.00 0.00 90 1018.0
20180819122508 80 149 0.0 0.0 0.00 0.00 0.00 92 1017.9
20180819122008 79 149 0.0 0.0 0.00 0.00 0.00 92 1017.8
20180819121508 79 149 0.0 0.0 0.00 0.00 0.00 93 1017.7
20180819121008 78 149 0.0 0.0 0.00 0.00 0.00 95 1017.7
20180819120508 78 149 0.0 2.0 0.00 0.00 0.00 96 1017.5
20180819120008 77 149 0.0 2.0 0.00 0.00 0.00 96 1017.5
20180819115508 77 152 0.0 4.0 0.00 0.00 0.00 96 1017.5
20180819115008 77 152 0.0 4.0 0.00 0.00 0.00 97 1017.4
20180819114508 76 154 0.0 0.0 0.00 0.00 0.00 96 1017.2
20180819114008 76 154 0.0 0.0 0.00 0.00 0.00 96 1017.2
20180819113509 76 154 0.0 0.0 0.00 0.00 0.00 97 1017.2
20180819113008 76 154 0.0 0.0 0.00 0.00 0.00 96 1017.2
20180819112508 76 154 0.0 0.0 0.00 0.00 0.00 96 1017.2
20180819112008 76 154 0.0 0.0 0.00 0.00 0.00 96 1017.0
20180819111508 76 154 0.0 0.0 0.00 0.00 0.00 96 1017.0
20180819111008 76 154 0.0 0.0 0.00 0.00 0.00 96 1017.0
20180819110508 76 154 0.0 0.0 0.00 0.00 0.00 96 1017.0
20180819110008 76 154 0.0 0.0 0.00 0.00 0.00 96 1016.9
20180819105507 76 154 0.0 0.0 0.00 0.00 0.00 96 1016.9
20180819105008 76 154 0.0 0.0 0.00 0.00 0.00 96 1016.9
20180819104507 76 154 0.0 0.0 0.00 0.00 0.00 96 1016.8
20180819104008 76 154 0.0 0.0 0.00 0.00 0.00 96 1016.6
20180819103508 76 154 0.0 0.0 0.00 0.00 0.00 96 1016.6
20180819103008 76 154 0.0 0.0 0.00 0.00 0.00 96 1016.6
20180819102508 76 154 0.0 0.0 0.00 0.00 0.00 96 1016.6
20180819102009 76 154 0.0 0.0 0.00 0.00 0.00 96 1016.6
20180819101508 76 154 0.0 0.0 0.00 0.00 0.00 96 1016.5
20180819101007 76 154 0.0 0.0 0.00 0.00 0.00 96 1016.4
20180819100507 76 154 0.0 0.0 0.00 0.00 0.00 95 1016.4
20180819100008 76 154 0.0 0.0 0.00 0.00 0.00 95 1016.3
20180819095508 76 154 0.0 0.0 0.00 0.00 0.00 95 1016.3
20180819095007 76 154 0.0 0.0 0.00 0.00 0.00 95 1016.2
20180819094508 76 154 0.0 0.0 0.00 0.00 0.00 95 1016.2
20180819094008 76 154 0.0 0.0 0.00 0.00 0.00 95 1016.1
20180819093508 76 154 0.0 0.0 0.00 0.00 0.00 95 1015.9
20180819093008 76 154 0.0 0.0 0.00 0.00 0.00 95 1015.9
20180819092508 76 154 0.0 0.0 0.00 0.00 0.00 95 1016.0
20180819092008 76 154 0.0 0.0 0.00 0.00 0.00 95 1016.0
20180819091507 76 154 0.0 0.0 0.00 0.00 0.00 95 1015.9
20180819091008 76 154 0.0 0.0 0.00 0.00 0.00 95 1015.9
20180819090508 76 154 0.0 0.0 0.00 0.00 0.00 95 1015.7
20180819090008 76 154 0.0 0.0 0.00 0.00 0.00 95 1015.6
20180819085508 76 154 0.0 0.0 0.00 0.00 0.00 95 1015.6
20180819085008 76 154 0.0 0.0 0.00 0.00 0.00 94 1015.6
20180819084508 76 154 0.0 0.0 0.00 0.00 0.00 94 1015.6
20180819084008 76 154 0.0 0.0 0.00 0.00 0.00 94 1015.6
20180819083507 76 154 0.0 0.0 0.00 0.00 0.00 94 1015.6
20180819083008 76 154 0.0 0.0 0.00 0.00 0.00 94 1015.6
20180819082508 77 154 0.0 0.0 0.00 0.00 0.00 94 1015.7
20180819082008 77 154 0.0 0.0 0.00 0.00 0.00 94 1015.7
20180819081507 77 154 0.0 0.0 0.00 0.00 0.00 94 1015.7
20180819081008 77 154 0.0 0.0 0.00 0.00 0.00 93 1015.8
20180819080508 77 154 0.0 0.0 0.00 0.00 0.00 93 1015.9
20180819080008 77 154 0.0 0.0 0.00 0.00 0.00 93 1016.0
20180819075508 77 154 0.0 0.0 0.00 0.00 0.00 93 1016.1
20180819075008 77 154 0.0 0.0 0.00 0.00 0.00 92 1016.1
20180819074507 77 154 0.0 0.0 0.00 0.00 0.00 92 1016.1
20180819074008 77 154 0.0 0.0 0.00 0.00 0.00 92 1016.1
20180819073508 77 154 0.0 0.0 0.00 0.00 0.00 92 1016.2
20180819073007 77 154 0.0 0.0 0.00 0.00 0.00 92 1016.3
20180819072507 78 154 0.0 0.0 0.00 0.00 0.00 92 1016.3
20180819072008 78 154 0.0 0.0 0.00 0.00 0.00 91 1016.4
20180819071508 78 154 0.0 0.0 0.00 0.00 0.00 91 1016.4
20180819071008 78 154 0.0 0.0 0.00 0.00 0.00 91 1016.4
20180819070507 78 154 0.0 0.0 0.00 0.00 0.00 91 1016.6
20180819070008 78 154 0.0 0.0 0.00 0.00 0.00 91 1016.6
20180819065507 78 154 0.0 0.0 0.00 0.00 0.00 90 1016.7
20180819065007 78 154 0.0 0.0 0.00 0.00 0.00 90 1016.7
20180819064507 78 154 0.0 0.0 0.00 0.00 0.00 90 1016.8
20180819064008 78 154 0.0 0.0 0.00 0.00 0.00 90 1016.9
20180819063508 78 154 0.0 0.0 0.00 0.00 0.00 90 1016.8
20180819063008 79 154 0.0 0.0 0.00 0.00 0.00 89 1017.0
20180819062508 79 154 0.0 0.0 0.00 0.00 0.00 89 1017.0
20180819062007 79 154 0.0 0.0 0.00 0.00 0.00 89 1017.1
20180819061507 79 154 0.0 0.0 0.00 0.00 0.00 89 1017.2
20180819061007 79 154 0.0 2.0 0.00 0.00 0.00 88 1017.2
20180819060507 79 154 0.0 2.0 0.00 0.00 0.00 88 1017.1
20180819060007 79 162 0.0 2.0 0.00 0.00 0.00 88 1017.1
20180819055507 79 162 0.0 2.0 0.00 0.00 0.00 87 1017.3
20180819055008 79 164 0.0 0.0 0.00 0.00 0.00 87 1017.3
20180819054508 79 164 0.0 0.0 0.00 0.00 0.00 86 1017.3
20180819054007 79 164 0.0 0.0 0.00 0.00 0.00 86 1017.3
20180819053508 80 164 0.0 0.0 0.00 0.00 0.00 86 1017.4
20180819053007 80 164 0.0 0.0 0.00 0.00 0.00 85 1017.5
20180819052508 80 164 0.0 0.0 0.00 0.00 0.00 85 1017.6
20180819052008 80 164 0.0 0.0 0.00 0.00 0.00 85 1017.6
20180819051508 80 164 0.0 0.0 0.00 0.00 0.00 85 1017.7
20180819051008 80 164 0.0 0.0 0.00 0.00 0.00 84 1017.7
20180819050507 80 164 0.0 4.0 0.00 0.00 0.00 84 1017.8
20180819050008 80 164 0.0 4.0 0.00 0.00 0.00 84 1017.8
20180819045508 80 165 0.0 0.0 0.00 0.00 0.00 83 1018.0
20180819045007 80 165 0.0 0.0 0.00 0.00 0.00 83 1018.0
20180819044508 80 165 0.0 0.0 0.00 0.00 0.00 83 1018.1
20180819044007 80 165 0.0 0.0 0.00 0.00 0.00 82 1018.2
20180819043508 80 165 0.0 0.0 0.00 0.00 0.00 82 1018.1
20180819043007 81 165 0.0 0.0 0.00 0.00 0.00 82 1018.1
20180819042507 81 165 0.0 0.0 0.00 0.00 0.00 82 1018.2
20180819042007 81 165 0.0 2.0 0.00 0.00 0.00 82 1018.1
20180819041508 81 165 0.0 2.0 0.00 0.00 0.00 82 1018.2
20180819041008 81 165 0.0 2.0 0.00 0.00 0.00 82 1018.1
20180819040508 81 165 0.0 2.0 0.00 0.00 0.00 83 1018.1
20180819040007 81 165 2.0 2.0 0.00 0.00 0.00 83 1018.2
20180819035508 81 165 0.0 2.0 0.00 0.00 0.00 83 1018.2
20180819035008 81 165 0.0 2.0 0.00 0.00 0.00 83 1018.2
20180819034508 81 165 0.0 2.0 0.00 0.00 0.00 83 1018.3
20180819034007 81 165 0.0 2.0 0.00 0.00 0.00 83 1018.3
20180819033508 81 165 0.0 2.0 0.00 0.00 0.00 82 1018.2
20180819033008 81 165 0.0 2.0 0.00 0.00 0.00 82 1018.2
20180819032508 81 165 0.0 4.0 0.00 0.00 0.00 82 1018.2
20180819032008 81 165 0.0 4.0 0.00 0.00 0.00 82 1018.2
20180819031508 81 165 0.0 2.0 0.00 0.00 0.00 81 1018.2
20180819031007 81 165 0.0 4.0 0.00 0.00 0.00 81 1018.2
20180819030507 81 165 0.0 4.0 0.00 0.00 0.00 81 1018.2
20180819030007 81 124 0.0 2.0 0.00 0.00 0.00 81 1018.2
20180819025508 81 125 0.0 2.0 0.00 0.00 0.00 81 1018.2
20180819025007 81 125 0.0 4.0 0.00 0.00 0.00 81 1018.1
20180819024507 81 125 2.0 6.0 0.00 0.00 0.00 81 1018.0
20180819024008 81 111 0.0 6.0 0.00 0.00 0.00 81 1018.0
20180819023507 81 122 0.0 4.0 0.00 0.00 0.00 81 1017.9
20180819023008 81 108 2.0 4.0 0.00 0.00 0.00 81 1017.8
20180819022508 81 108 2.0 4.0 0.00 0.00 0.00 82 1017.8
20180819022008 81 107 0.0 0.0 0.00 0.00 0.00 81 1017.7
20180819021508 81 107 0.0 2.0 0.00 0.00 0.00 81 1017.7
20180819021008 81 107 0.0 2.0 0.00 0.00 0.00 81 1017.6
20180819020507 81 107 0.0 4.0 0.00 0.00 0.00 81 1017.6
20180819020007 81 107 0.0 4.0 0.00 0.00 0.00 80 1017.6
20180819015507 81 106 2.0 4.0 0.00 0.00 0.00 80 1017.5
20180819015007 81 105 2.0 2.0 0.00 0.00 0.00 79 1017.5
20180819014507 82 105 0.0 6.0 0.00 0.00 0.00 79 1017.4
20180819014007 82 105 0.0 6.0 0.00 0.00 0.00 79 1017.5
20180819013507 82 105 0.0 4.0 0.00 0.00 0.00 79 1017.4
20180819013007 82 105 0.0 4.0 0.00 0.00 0.00 78 1017.3
20180819012507 82 104 2.0 2.0 0.00 0.00 0.00 78 1017.2
20180819012007 82 105 0.0 0.0 0.00 0.00 0.00 78 1017.1
20180819011507 82 105 0.0 4.0 0.00 0.00 0.00 77 1017.1
20180819011008 82 105 0.0 4.0 0.00 0.00 0.00 77 1017.1
20180819010507 82 102 0.0 2.0 0.00 0.00 0.00 78 1017.1
20180819010008 82 102 0.0 2.0 0.00 0.00 0.00 78 1017.1
20180819005508 82 102 0.0 4.0 0.00 0.00 0.00 78 1017.0
20180819005008 82 102 0.0 6.0 0.00 0.00 0.00 78 1017.0
20180819004508 82 106 0.0 6.0 0.00 0.00 0.00 78 1016.9
20180819004008 82 98 2.0 6.0 0.00 0.00 0.00 78 1016.8
20180819003507 82 112 0.0 8.0 0.00 0.00 0.00 77 1016.6
20180819003008 82 111 2.0 8.0 0.00 0.00 0.00 77 1016.6
20180819002507 82 125 2.0 11.0 0.00 0.00 0.00 77 1016.6
20180819002007 82 110 2.0 11.0 0.00 0.00 0.00 76 1016.7
20180819001508 83 125 4.0 15.0 0.00 0.00 0.00 75 1016.7
20180819001007 83 117 2.0 15.0 0.00 0.00 0.00 75 1016.7
20180819000507 83 128 0.0 13.0 0.00 0.00 0.00 75 1016.7
20180819000007 83 111 2.0 15.0 0.00 0.00 0.00 75 1016.8
20180818235508 84 129 0.0 15.0 0.00 0.00 0.00 75 1016.9
20180818235007 84 104 4.0 13.0 0.00 0.00 0.00 75 1016.9
20180818234507 84 139 4.0 17.0 0.00 0.00 0.00 74 1016.9
20180818234007 85 120 6.0 17.0 0.00 0.00 0.00 73 1017.0
20180818233507 85 117 4.0 15.0 0.00 0.00 0.00 72 1017.0
20180818233008 86 164 4.0 15.0 0.00 0.00 0.00 71 1017.1
20180818232507 86 119 4.0 17.0 0.00 0.00 0.00 70 1017.0
20180818232008 87 104 13.0 17.0 0.00 0.00 0.00 69 1017.0
20180818231508 87 150 0.0 17.0 0.00 0.00 0.00 69 1017.0
20180818231007 88 98 11.0 17.0 0.00 0.00 0.00 69 1017.0
20180818230508 88 112 6.0 23.0 0.00 0.00 0.00 66 1017.0
20180818230007 88 146 2.0 23.0 0.00 0.00 0.00 64 1017.1
20180818225508 89 125 8.0 19.0 0.00 0.00 0.00 62 1016.9
20180818225007 89 123 6.0 19.0 0.00 0.00 0.00 61 1016.8
20180818224507 90 122 15.0 15.0 0.00 0.00 0.00 62 1016.6
20180818224007 90 145 6.0 19.0 0.00 0.00 0.00 62 1016.5
20180818223508 89 107 13.0 19.0 0.00 0.00 0.00 62 1016.4
20180818223008 90 196 8.0 23.0 0.00 0.00 0.00 62 1016.3
20180818222507 89 125 11.0 23.0 0.00 0.00 0.00 62 1016.2
20180818222007 90 122 2.0 19.0 0.00 0.00 0.00 62 1016.1
20180818221507 90 84 11.0 21.0 0.00 0.00 0.00 60 1016.1
20180818221007 91 121 6.0 23.0 0.00 0.00 0.00 59 1016.0
20180818220507 92 122 15.0 23.0 0.00 0.00 0.00 58 1015.9
20180818220007 92 111 13.0 23.0 0.00 0.00 0.00 56 1015.9
20180818215507 94 115 21.0 21.0 0.00 0.00 0.00 53 1015.7
20180818215008 95 133 0.0 11.0 0.00 0.00 0.00 44 1015.7
20180818214507 95 138 0.0 6.0 0.00 0.00 0.00 44 1015.9
20180818214008 95 94 2.0 13.0 0.00 0.00 0.00 42 1015.9
20180818213507 95 231 0.0 13.0 0.00 0.00 0.00 43 1016.0
20180818213007 95 156 0.0 6.0 0.00 0.00 0.00 43 1016.1
20180818212507 95 140 0.0 8.0 0.00 0.00 0.00 43 1016.1
20180818212008 95 140 2.0 8.0 0.00 0.00 0.00 43 1016.2
20180818211507 95 122 2.0 8.0 0.00 0.00 0.00 42 1016.2
20180818211007 95 145 0.0 15.0 0.00 0.00 0.00 41 1016.3
20180818210507 95 87 4.0 17.0 0.00 0.00 0.00 42 1016.4
20180818210008 96 63 11.0 17.0 0.00 0.00 0.00 42 1016.5
20180818205507 95 281 2.0 11.0 0.00 0.00 0.00 42 1016.5
20180818205008 95 228 2.0 17.0 0.00 0.00 0.00 42 1016.6
20180818204508 95 175 6.0 17.0 0.00 0.00 0.00 40 1016.8
20180818204007 95 212 0.0 15.0 0.00 0.00 0.00 40 1016.8
20180818203507 95 277 2.0 15.0 0.00 0.00 0.00 42 1016.8
20180818203008 95 108 6.0 11.0 0.00 0.00 0.00 42 1016.9
20180818202508 95 58 2.0 11.0 0.00 0.00 0.00 42 1016.9
20180818202007 95 127 4.0 17.0 0.00 0.00 0.00 39 1016.9
20180818201507 95 104 4.0 17.0 0.00 0.00 0.00 42 1017.0
20180818201007 95 28 4.0 13.0 0.00 0.00 0.00 42 1016.9
20180818200507 95 100 0.0 13.0 0.00 0.00 0.00 41 1017.0
20180818200007 95 109 13.0 13.0 0.00 0.00 0.00 42 1017.1
20180818195507 94 107 2.0 15.0 0.00 0.00 0.00 43 1017.2
20180818195007 94 77 6.0 15.0 0.00 0.00 0.00 43 1017.3
20180818194508 95 107 13.0 15.0 0.00 0.00 0.00 42 1017.4
20180818194007 95 106 2.0 8.0 0.00 0.00 0.00 42 1017.4
20180818193508 94 111 0.0 13.0 0.00 0.00 0.00 41 1017.5
20180818193007 95 140 2.0 13.0 0.00 0.00 0.00 40 1017.5
20180818192507 95 119 8.0 13.0 0.00 0.00 0.00 42 1017.5
20180818192008 96 119 4.0 8.0 0.00 0.00 0.00 41 1017.5
20180818191507 95 212 2.0 17.0 0.00 0.00 0.00 45 1017.5
20180818191008 95 140 4.0 17.0 0.00 0.00 0.00 44 1017.6
20180818190510 95 123 0.0 11.0 0.00 0.00 0.00 41 1017.7
20180818190007 95 138 2.0 6.0 0.00 0.00 0.00 42 1017.8
20180818185507 95 87 6.0 11.0 0.00 0.00 0.00 45 1017.9
20180818185007 95 112 4.0 13.0 0.00 0.00 0.00 43 1018.0
20180818184507 95 98 2.0 13.0 0.00 0.00 0.00 43 1018.1
20180818184007 94 197 0.0 8.0 0.00 0.00 0.00 44 1018.2
20180818183507 94 197 0.0 8.0 0.00 0.00 0.00 44 1018.3
20180818183007 94 127 0.0 6.0 0.00 0.00 0.00 47 1018.5
20180818182508 94 93 4.0 11.0 0.00 0.00 0.00 48 1018.5
20180818182007 94 121 4.0 11.0 0.00 0.00 0.00 46 1018.5
20180818181507 94 99 4.0 11.0 0.00 0.00 0.00 49 1018.6
20180818181007 93 115 4.0 13.0 0.00 0.00 0.00 48 1018.6
20180818180507 93 167 2.0 13.0 0.00 0.00 0.00 48 1018.7
20180818180007 93 22 2.0 11.0 0.00 0.00 0.00 48 1018.8
20180818175508 93 231 0.0 8.0 0.00 0.00 0.00 48 1018.9
20180818175007 93 100 4.0 8.0 0.00 0.00 0.00 51 1019.0
20180818174507 93 103 0.0 13.0 0.00 0.00 0.00 48 1019.1
20180818174008 93 92 6.0 13.0 0.00 0.00 0.00 52 1019.1
20180818173507 94 117 2.0 17.0 0.00 0.00 0.00 50 1019.2
20180818173007 94 65 2.0 17.0 0.00 0.00 0.00 49 1019.2
20180818172507 94 125 8.0 11.0 0.00 0.00 0.00 51 1019.2
20180818172007 93 104 11.0 11.0 0.00 0.00 0.00 53 1019.4
20180818171508 92 155 0.0 13.0 0.00 0.00 0.00 54 1019.4
20180818171008 92 167 2.0 13.0 0.00 0.00 0.00 51 1019.6
20180818170507 92 102 2.0 17.0 0.00 0.00 0.00 53 1019.5
20180818170007 92 100 0.0 17.0 0.00 0.00 0.00 50 1019.6
20180818165507 92 104 4.0 11.0 0.00 0.00 0.00 54 1019.7
20180818165007 92 104 4.0 11.0 0.00 0.00 0.00 53 1019.7
20180818164507 91 350 0.0 6.0 0.00 0.00 0.00 55 1019.8
20180818164007 92 169 0.0 8.0 0.00 0.00 0.00 53 1019.9
20180818163507 92 131 4.0 8.0 0.00 0.00 0.00 57 1020.0
20180818163007 92 119 2.0 6.0 0.00 0.00 0.00 53 1020.0
20180818162507 93 118 0.0 4.0 0.00 0.00 0.00 54 1020.0
20180818162007 92 109 4.0 11.0 0.00 0.00 0.00 54 1020.0
20180818161507 92 113 0.0 11.0 0.00 0.00 0.00 55 1020.2
20180818161007 91 101 0.0 11.0 0.00 0.00 0.00 57 1020.2
20180818160507 91 101 4.0 11.0 0.00 0.00 0.00 56 1020.2
20180818160007 90 151 4.0 11.0 0.00 0.00 0.00 57 1020.3
20180818155508 90 155 6.0 6.0 0.00 0.00 0.00 60 1020.4
20180818155007 90 115 0.0 4.0 0.00 0.00 0.00 58 1020.4
20180818154507 90 113 0.0 6.0 0.00 0.00 0.00 59 1020.4
20180818154007 90 113 0.0 6.0 0.00 0.00 0.00 60 1020.4
20180818153507 90 118 0.0 6.0 0.00 0.00 0.00 60 1020.5
20180818153007 90 134 6.0 6.0 0.00 0.00 0.00 61 1020.5
20180818152507 90 129 2.0 6.0 0.00 0.00 0.00 60 1020.6
20180818152007 89 152 0.0 8.0 0.00 0.00 0.00 61 1020.6
20180818151507 90 114 2.0 8.0 0.00 0.00 0.00 62 1020.6
20180818151007 89 112 4.0 8.0 0.00 0.00 0.00 61 1020.7
20180818150507 89 118 0.0 8.0 0.00 0.00 0.00 62 1020.7
20180818150007 89 112 8.0 8.0 0.00 0.00 0.00 62 1020.7
20180818145508 89 123 0.0 6.0 0.00 0.00 0.00 66 1020.7
20180818145007 88 120 0.0 4.0 0.00 0.00 0.00 67 1020.9
20180818144507 88 117 0.0 2.0 0.00 0.00 0.00 69 1020.8
20180818144007 87 117 0.0 11.0 0.00 0.00 0.00 70 1020.9
20180818143507 87 117 0.0 11.0 0.00 0.00 0.00 68 1020.8
20180818143007 88 95 2.0 11.0 0.00 0.00 0.00 69 1020.9
20180818142507 88 97 2.0 11.0 0.00 0.00 0.00 70 1020.9
20180818142007 87 126 0.0 6.0 0.00 0.00 0.00 72 1020.8
20180818141507 87 125 2.0 6.0 0.00 0.00 0.00 70 1020.9
20180818141007 86 118 0.0 6.0 0.00 0.00 0.00 70 1020.9
20180818140507 86 116 0.0 11.0 0.00 0.00 0.00 71 1020.9
20180818140007 86 113 4.0 11.0 0.00 0.00 0.00 70 1020.9
20180818135507 86 97 4.0 6.0 0.00 0.00 0.00 71 1020.9
20180818135007 86 107 4.0 6.0 0.00 0.00 0.00 72 1020.9
20180818134507 86 120 0.0 4.0 0.00 0.00 0.00 72 1020.9
20180818134007 86 107 0.0 4.0 0.00 0.00 0.00 73 1020.9